This is the latest recevied weather packets stored in our database for station/object WA9NNN-10. If no packets are shown the sender has not sent any weather packets the latest 10 day(s).
| Time | Temp. | Humidity | Pressure | Rain* | Wind** | Luminosity | Snow |
|---|---|---|---|---|---|---|---|
| 1788554311 | 34.44° C | 56% | 1011.8 hPa | 0 mm | - | - | - |
| 1788554010 | 34.44° C | 55% | 1012.1 hPa | 0 mm | - | - | - |
| 1788553711 | 35° C | 55% | 1012.2 hPa | 0 mm | - | - | - |
| 1788553410 | 35° C | 55% | 1012.2 hPa | 0 mm | - | - | - |
| 1788553111 | 35° C | 54% | 1012.3 hPa | 0 mm | - | - | - |
| 1788552810 | 35° C | 54% | 1012.3 hPa | 0 mm | - | - | - |
| 1788552512 | 35.56° C | 52% | 1012.3 hPa | 0 mm | - | - | - |
| 1788552210 | 35.56° C | 52% | 1012.4 hPa | 0 mm | - | - | - |
| 1788551911 | 35.56° C | 53% | 1012.6 hPa | 0 mm | - | - | - |
| 1788551610 | 35.56° C | 53% | 1012.6 hPa | 0 mm | - | - | - |
| 1788551324 | 35.56° C | 53% | 1012.6 hPa | 0 mm | - | - | - |
| 1788551010 | 35.56° C | 53% | 1012.7 hPa | 0 mm | - | - | - |
| 1788550710 | 35.56° C | 52% | 1012.7 hPa | 0 mm | - | - | - |
| 1788550411 | 36.11° C | 52% | 1012.9 hPa | 0 mm | - | - | - |
| 1788550111 | 35.56° C | 52% | 1012.9 hPa | 0 mm | - | - | - |
| 1788549810 | 35° C | 52% | 1013 hPa | 0 mm | - | - | - |
| 1788549511 | 35° C | 51% | 1013.1 hPa | 0 mm | - | - | - |
| 1788549210 | 35° C | 52% | 1013.2 hPa | 0 mm | - | - | - |
| 1788548910 | 34.44° C | 53% | 1013.3 hPa | 0 mm | - | - | - |
| 1788548610 | 34.44° C | 53% | 1013.4 hPa | 0 mm | - | - | - |
| 1788548311 | 34.44° C | 53% | 1013.4 hPa | 0 mm | - | - | - |
| 1788548010 | 33.89° C | 54% | 1013.6 hPa | 0 mm | - | - | - |
| 1788547710 | 33.33° C | 58% | 1013.7 hPa | 0 mm | - | - | - |
| 1788547410 | 32.22° C | 59% | 1013.7 hPa | 0 mm | - | - | - |
| 1788547111 | 31.67° C | 61% | 1013.7 hPa | 0 mm | - | - | - |
* Rain latest hour (hover to see other rain measurements)
** Current wind speed in m/s (hover to see current wind gust speed)